EW1820 Weather Reports


time (UTC)temp
C
wind
direction
speed
KPH
gust
KPH
rain 1hr
cm
rain 24hr
cm
rain mn
cm
humidity
%
barometer
mb
20260508142544 8 281 12.9 25.7 0.00 0.33 0.00 82 1006.0
20260508142048 8 224 11.3 20.9 0.00 0.33 0.00 82 1006.0
20260508141547 8 304 9.7 24.1 0.00 0.33 0.00 83 1006.0
20260508141044 8 248 11.3 24.1 0.00 0.33 0.00 83 1006.2
20260508140545 8 281 11.3 22.5 0.00 0.33 0.00 82 1006.1
20260508140048 8 232 9.7 22.5 0.00 0.33 0.00 82 1006.1
20260508135544 8 281 8.0 20.9 0.00 0.58 0.00 82 1006.1
20260508135045 8 263 9.7 22.5 0.00 0.58 0.00 81 1006.1
20260508134550 8 306 8.0 22.5 0.00 0.58 0.00 81 1006.1
20260508134041 8 279 8.0 22.5 0.00 0.58 0.00 82 1006.2
20260508133545 8 262 9.7 22.5 0.00 0.58 0.00 82 1006.1
20260508133052 8 235 9.7 20.9 0.00 0.58 0.00 82 1006.2
20260508132541 8 254 9.7 25.7 0.00 0.58 0.00 81 1006.1
20260508132041 8 289 11.3 25.7 0.00 0.58 0.00 81 1005.9
20260508131555 8 316 9.7 20.9 0.00 0.58 0.00 82 1005.8
20260508131045 8 281 11.3 20.9 0.00 0.58 0.00 82 1005.8
20260508130544 8 310 9.7 20.9 0.00 0.58 0.00 83 1005.8
20260508130105 8 283 8.0 19.3 0.00 0.58 0.00 83 1005.7
20260508125545 8 270 9.7 24.1 0.00 1.27 0.00 82 1005.6
20260508125048 8 253 9.7 24.1 0.00 1.27 0.00 83 1005.6
20260508124549 8 271 9.7 19.3 0.00 1.27 0.00 82 1005.6
20260508124048 8 252 6.4 19.3 0.00 1.27 0.00 83 1005.4
20260508123542 8 317 9.7 19.3 0.00 1.27 0.00 82 1005.5
20260508123052 8 308 9.7 17.7 0.00 1.27 0.00 82 1005.5
20260508122541 8 273 6.4 22.5 0.00 1.27 0.00 82 1005.5
20260508122044 8 269 6.4 22.5 0.00 1.27 0.00 82 1005.4
20260508121550 8 265 6.4 25.7 0.00 1.27 0.00 82 1005.5
20260508121046 8 225 11.3 25.7 0.00 1.27 0.00 81 1005.4
20260508120545 8 317 9.7 19.3 0.00 1.27 0.00 81 1005.3
20260508120054 8 294 8.0 16.1 0.00 1.27 0.00 82 1005.2
20260508115545 8 277 6.4 16.1 0.00 1.42 0.00 83 1005.2
20260508115044 7 273 6.4 16.1 0.00 1.42 0.00 83 1005.1
20260508114552 7 327 6.4 16.1 0.00 1.42 0.00 83 1005.2
20260508114045 7 291 6.4 16.1 0.00 1.42 0.00 83 1005.2
20260508113545 7 275 4.8 12.9 0.00 1.42 0.00 83 1005.2
20260508113053 7 288 4.8 12.9 0.00 1.42 0.00 84 1005.3
20260508112545 7 300 6.4 12.9 0.00 1.42 0.00 84 1005.3
20260508112045 7 308 3.2 12.9 0.00 1.42 0.00 84 1005.2
20260508111551 7 313 4.8 14.5 0.00 1.42 0.00 84 1005.2
20260508111044 7 277 8.0 16.1 0.00 1.42 0.00 84 1005.1
20260508110546 7 285 11.3 17.7 0.00 1.42 0.00 84 1005.1
20260508110105 7 309 9.7 17.7 0.00 1.42 0.00 85 1005.0
20260508105544 7 314 9.7 16.1 0.00 1.42 0.00 85 1005.0
20260508105047 7 301 8.0 14.5 0.00 1.42 0.00 86 1004.9
20260508104550 7 321 6.4 11.3 0.00 1.42 0.00 86 1004.8
20260508104046 7 332 3.2 11.3 0.00 1.42 0.00 87 1004.7
20260508103545 6 321 3.2 12.9 0.00 1.42 0.00 87 1004.7
20260508103050 6 332 4.8 16.1 0.00 1.42 0.00 87 1004.8
20260508102541 6 319 4.8 16.1 0.00 1.42 0.00 87 1004.8
20260508102045 6 316 6.4 16.1 0.00 1.42 0.00 87 1004.8
20260508101553 6 319 6.4 17.7 0.00 1.42 0.00 87 1004.7
20260508101045 6 295 9.7 17.7 0.00 1.42 0.00 87 1004.7
20260508100546 6 289 9.7 17.7 0.00 1.42 0.00 88 1004.6
20260508100051 6 315 11.3 17.7 0.00 1.42 0.00 88 1004.4
20260508095548 6 298 11.3 17.7 0.00 1.42 0.00 89 1004.3
20260508095045 6 301 9.7 17.7 0.00 1.42 0.00 89 1004.3
20260508094556 5 290 11.3 17.7 0.00 1.42 0.00 90 1004.2
20260508094044 5 300 11.3 20.9 0.00 1.42 0.00 91 1004.2
20260508093547 5 302 11.3 20.9 0.00 1.42 0.00 91 1004.1
20260508093101 5 296 11.3 17.7 0.00 1.42 0.00 92 1004.2
20260508092544 5 303 8.0 14.5 0.00 1.42 0.00 93 1004.2
20260508092045 5 302 3.2 12.9 0.00 1.42 0.00 92 1004.0
20260508091551 5 315 4.8 12.9 0.00 1.42 0.00 92 1003.9
20260508091045 5 330 4.8 12.9 0.00 1.42 0.00 92 1003.9
20260508090543 5 326 4.8 8.0 0.00 1.42 0.00 92 1003.9
20260508090106 5 325 4.8 9.7 0.00 1.42 0.00 93 1003.9
20260508085546 5 327 4.8 9.7 0.00 1.42 0.00 92 1003.8
20260508085043 5 331 4.8 8.0 0.00 1.42 0.00 92 1003.7
20260508084552 5 331 4.8 12.9 0.00 1.42 0.00 92 1003.7
20260508084044 5 333 3.2 19.3 0.00 1.42 0.00 93 1003.7
20260508083545 5 315 9.7 19.3 0.00 1.42 0.00 93 1003.7
20260508083053 5 315 9.7 19.3 0.00 1.42 0.00 93 1003.8
20260508082544 6 303 11.3 16.1 0.00 1.42 0.00 94 1003.7
20260508082044 6 304 9.7 16.1 0.00 1.42 0.00 94 1003.8
20260508081558 6 309 11.3 16.1 0.00 1.42 0.00 94 1003.8
20260508081042 6 306 11.3 17.7 0.00 1.42 0.00 94 1003.8
20260508080545 6 296 9.7 17.7 0.00 1.42 0.00 95 1003.8
20260508080119 6 305 11.3 17.7 0.00 1.42 0.00 95 1003.7
20260508075545 6 301 9.7 14.5 0.00 1.45 0.00 95 1003.8
20260508075048 6 299 9.7 14.5 0.00 1.45 0.00 95 1003.8
20260508074554 6 299 6.4 11.3 0.00 1.45 0.00 95 1003.8
20260508074045 6 282 6.4 11.3 0.00 1.45 0.00 95 1003.7
20260508073544 6 284 6.4 11.3 0.00 1.45 0.00 96 1003.8
20260508073058 6 338 3.2 8.0 0.00 1.45 0.00 95 1003.7
20260508072543 6 338 1.6 6.4 0.00 1.45 0.00 95 1003.8
20260508072043 6 338 3.2 6.4 0.00 1.45 0.00 95 1003.8
20260508071552 6 338 3.2 8.0 0.00 1.45 0.00 95 1003.8
20260508071045 6 338 3.2 8.0 0.00 1.45 0.00 95 1003.7
20260508070546 6 338 3.2 6.4 0.00 1.45 0.00 95 1003.7
20260508070054 6 338 3.2 8.0 0.00 1.45 0.00 95 1003.7
20260508065548 6 338 4.8 8.0 0.00 1.63 0.00 95 1003.7
20260508065042 6 355 3.2 6.4 0.00 1.63 0.00 95 1003.8
20260508064550 6 360 3.2 6.4 0.00 1.63 0.00 95 1003.8
20260508064043 6 360 3.2 8.0 0.00 1.63 0.00 96 1003.7
20260508063541 6 360 3.2 8.0 0.00 1.63 0.00 96 1003.7
20260508063054 6 360 3.2 8.0 0.00 1.63 0.00 96 1003.9
20260508062542 6 360 4.8 8.0 0.00 1.63 0.00 96 1003.9
20260508062043 6 333 3.2 8.0 0.00 1.63 0.00 96 1003.9
20260508061605 6 333 4.8 8.0 0.00 1.63 0.00 96 1003.8
20260508061044 6 333 4.8 6.4 0.00 1.63 0.00 96 1003.9
20260508060545 6 333 3.2 6.4 0.00 1.63 0.00 96 1004.0
20260508060052 6 333 3.2 6.4 0.00 1.63 0.00 96 1004.1
20260508055545 6 333 3.2 6.4 0.00 1.88 0.00 96 1003.9
20260508055044 6 333 3.2 6.4 0.00 1.88 0.00 96 1003.9
20260508054609 6 333 3.2 8.0 0.00 1.88 0.00 96 1003.9
20260508054043 6 333 3.2 12.9 0.00 1.88 0.00 96 1003.9
20260508053544 6 333 4.8 12.9 0.00 1.88 0.00 96 1003.7
20260508053053 6 348 4.8 12.9 0.00 1.88 0.00 96 1003.7
20260508052550 6 346 4.8 17.7 0.00 1.88 0.00 96 1003.8
20260508052043 6 348 6.4 17.7 0.00 1.88 0.00 96 1003.6
20260508051554 6 333 8.0 14.5 0.00 1.88 0.00 96 1003.7
20260508051043 6 304 6.4 12.9 0.00 1.88 0.00 96 1003.6
20260508050544 6 329 6.4 12.9 0.00 1.88 0.00 96 1003.6
20260508050050 6 309 6.4 12.9 0.00 1.88 0.00 96 1003.7
20260508045547 6 315 4.8 12.9 0.00 2.06 0.00 96 1003.7
20260508045043 6 325 4.8 14.5 0.00 2.06 0.00 96 1003.8
20260508044601 6 303 6.4 14.5 0.00 2.06 0.00 96 1003.8
20260508044042 6 301 8.0 14.5 0.00 2.06 0.00 96 1003.9
20260508043544 6 301 6.4 14.5 0.00 2.06 0.00 96 1003.9
20260508043048 6 286 6.4 14.5 0.00 2.06 0.00 96 1004.1
20260508042545 6 250 3.2 9.7 0.00 2.06 0.00 95 1004.1
20260508042047 6 269 1.6 9.7 0.00 2.06 0.00 95 1004.2
20260508041556 5 271 3.2 14.5 0.00 2.06 0.00 95 1004.2
20260508041045 5 275 3.2 14.5 0.00 2.06 0.00 95 1004.3
20260508040545 5 234 3.2 6.4 0.00 2.06 0.00 96 1004.2
20260508040056 5 232 0.0 4.8 0.00 2.06 0.00 95 1004.5
20260508035544 5 0 0.0 8.0 0.00 2.06 0.00 95 1004.7
20260508035046 5 232 1.6 8.0 0.00 2.06 0.00 95 1004.6
20260508034601 5 232 4.8 9.7 0.00 2.06 0.00 95 1004.7
20260508034045 5 232 6.4 11.3 0.00 2.06 0.00 95 1004.5
20260508033544 5 227 6.4 11.3 0.00 2.06 0.00 95 1004.5
20260508033052 5 229 8.0 11.3 0.00 2.06 0.00 95 1004.5
20260508032546 5 213 6.4 9.7 0.00 2.06 0.00 95 1004.4
20260508032045 5 213 6.4 9.7 0.00 2.06 0.00 94 1004.4
20260508031558 5 201 4.8 9.7 0.00 2.06 0.00 94 1004.5
20260508031044 5 202 6.4 9.7 0.00 2.06 0.00 94 1004.5
20260508030541 5 201 6.4 9.7 0.00 2.06 0.00 94 1004.3
20260508030106 5 201 6.4 9.7 0.00 2.06 0.00 95 1004.3
20260508025544 5 201 4.8 8.0 0.00 2.06 2.06 95 1004.3
20260508025049 5 201 1.6 6.4 0.00 2.06 2.06 94 1004.3
20260508024553 5 201 3.2 6.4 0.00 2.06 2.06 94 1004.0
20260508024045 5 201 1.6 6.4 0.00 2.06 2.06 94 1004.0
20260508023545 5 201 3.2 6.4 0.00 2.06 2.06 94 1003.9
20260508023049 5 201 1.6 6.4 0.00 2.06 2.06 94 1003.9
20260508022545 5 201 1.6 6.4 0.00 2.06 2.06 93 1003.9
20260508022042 5 0 1.6 6.4 0.00 2.06 2.06 93 1004.1
20260508021554 5 201 3.2 6.4 0.00 2.06 2.06 93 1004.2
20260508021048 6 201 3.2 8.0 0.00 2.06 2.06 93 1004.4
20260508020544 6 201 1.6 8.0 0.00 2.06 2.06 93 1004.5
20260508020050 6 203 3.2 6.4 0.00 2.06 2.06 93 1004.4
20260508015544 6 203 4.8 6.4 0.00 2.06 2.06 93 1004.3
20260508015044 6 203 3.2 6.4 0.00 2.06 2.06 93 1004.4
20260508014554 6 203 1.6 8.0 0.00 2.06 2.06 93 1004.6
20260508014046 6 203 4.8 8.0 0.00 2.06 2.06 93 1004.5
20260508013548 6 205 4.8 6.4 0.00 2.06 2.06 93 1004.5
20260508013058 6 196 3.2 6.4 0.00 2.06 2.06 93 1004.4
20260508012544 6 196 3.2 4.8 0.00 2.06 2.06 93 1004.5
20260508012048 6 196 1.6 6.4 0.00 2.06 2.06 93 1004.5
20260508011557 6 196 3.2 6.4 0.00 2.06 2.06 93 1004.5
20260508011047 6 196 1.6 6.4 0.00 2.06 2.06 93 1004.5
20260508010542 6 196 3.2 6.4 0.00 2.06 2.06 92 1004.5
20260508010054 6 196 1.6 8.0 0.00 2.06 2.06 93 1004.4
20260508005544 6 196 1.6 8.0 0.00 2.06 2.06 92 1004.3
20260508005045 6 196 4.8 8.0 0.00 2.06 2.06 92 1004.3
20260508004558 6 196 4.8 8.0 0.00 2.06 2.06 92 1004.2
20260508004046 6 196 3.2 8.0 0.00 2.06 2.06 92 1004.2
20260508003541 6 219 4.8 6.4 0.00 2.06 2.06 92 1004.1
20260508003101 6 219 3.2 6.4 0.00 2.06 2.06 91 1004.1
20260508002545 6 219 1.6 6.4 0.00 2.06 2.06 91 1004.1
20260508002043 6 219 3.2 6.4 0.00 2.06 2.06 91 1004.1
20260508001554 7 219 4.8 6.4 0.00 2.06 2.06 90 1004.0
20260508001041 7 219 3.2 6.4 0.00 2.06 2.06 90 1003.9
20260508000545 7 219 3.2 6.4 0.00 2.06 2.06 90 1003.7
20260508000052 7 219 3.2 6.4 0.00 2.06 2.06 89 1003.7
20260507235545 7 219 3.2 6.4 0.00 2.06 2.06 89 1003.6
20260507235044 7 219 3.2 6.4 0.00 2.06 2.06 89 1003.5
20260507234553 7 219 1.6 6.4 0.00 2.06 2.06 89 1003.8
20260507234046 7 219 1.6 8.0 0.00 2.06 2.06 89 1003.7
20260507233545 7 208 4.8 8.0 0.00 2.06 2.06 88 1003.6
20260507233054 7 207 3.2 6.4 0.00 2.06 2.06 87 1003.7
20260507232548 8 207 3.2 6.4 0.00 2.06 2.06 87 1003.7
20260507232044 8 207 3.2 6.4 0.00 2.06 2.06 87 1003.6
20260507231558 8 207 4.8 6.4 0.00 2.06 2.06 86 1003.5
20260507231041 8 207 4.8 8.0 0.00 2.06 2.06 86 1003.4
20260507230542 8 205 4.8 9.7 0.00 2.06 2.06 85 1003.7
20260507230054 8 207 3.2 9.7 0.00 2.06 2.06 86 1003.6
20260507225542 9 207 3.2 11.3 0.00 2.06 2.06 86 1003.6
20260507225042 9 219 4.8 16.1 0.00 2.06 2.06 86 1003.7
20260507224600 9 225 6.4 17.7 0.00 2.06 2.06 86 1003.7
20260507224042 9 204 8.0 17.7 0.00 2.06 2.06 87 1003.5
20260507223549 9 205 4.8 11.3 0.00 2.06 2.06 87 1003.7
20260507223051 9 198 4.8 9.7 0.00 2.06 2.06 87 1003.6
20260507222548 9 203 1.6 9.7 0.00 2.06 2.06 87 1003.6
20260507222043 9 266 3.2 8.0 0.00 2.06 2.06 87 1003.5
20260507221550 9 244 4.8 8.0 0.00 2.06 2.06 87 1003.4
20260507221041 9 244 3.2 8.0 0.00 2.06 2.06 87 1003.4
20260507220545 9 244 3.2 8.0 0.00 2.06 2.06 87 1003.3
20260507220049 9 232 3.2 8.0 0.00 2.06 2.06 88 1003.3
20260507215543 9 239 3.2 9.7 0.00 2.06 2.06 89 1003.5
20260507215041 9 239 4.8 9.7 0.00 2.06 2.06 89 1003.5
20260507214553 9 225 6.4 14.5 0.00 2.06 2.06 90 1003.6
20260507214041 8 248 8.0 16.1 0.00 2.06 2.06 90 1003.7
20260507213544 8 225 9.7 16.1 0.00 2.06 2.06 90 1003.8
20260507213053 8 212 8.0 16.1 0.00 2.06 2.06 91 1003.8
20260507212546 8 211 9.7 16.1 0.00 2.06 2.06 91 1003.9
20260507212045 8 213 8.0 16.1 0.00 2.06 2.06 92 1003.8
20260507211555 8 215 9.7 16.1 0.00 2.06 2.06 92 1003.9
20260507211044 8 223 9.7 16.1 0.00 2.06 2.06 93 1004.0
20260507210546 8 215 8.0 14.5 0.00 2.06 2.06 94 1003.7
20260507210115 8 218 9.7 14.5 0.00 2.06 2.06 93 1003.8
20260507205545 8 225 9.7 16.1 0.00 2.06 2.06 94 1003.8
20260507205046 8 233 8.0 16.1 0.00 2.06 2.06 95 1003.7
20260507204600 8 215 12.9 16.1 0.00 2.06 2.06 95 1003.8
20260507204044 8 221 11.3 16.1 0.00 2.06 2.06 95 1003.7
20260507203544 8 219 9.7 19.3 0.00 2.06 2.06 95 1003.8
20260507203058 8 232 12.9 19.3 0.00 2.06 2.06 95 1003.7
20260507202542 8 217 11.3 19.3 0.00 2.06 2.06 96 1003.6
20260507202043 8 228 12.9 19.3 0.00 2.06 2.06 96 1003.6
20260507201600 8 228 9.7 16.1 0.00 2.06 2.06 96 1003.5
20260507201042 8 224 11.3 14.5 0.00 2.06 2.06 96 1003.4
20260507200546 8 226 9.7 16.1 0.00 2.06 2.06 97 1003.3
20260507200105 8 219 9.7 17.7 0.00 2.06 2.06 97 1003.3
20260507195548 8 219 9.7 19.3 0.00 2.06 2.06 97 1003.3
20260507195042 8 234 11.3 19.3 0.00 2.06 2.06 97 1003.5
20260507194556 8 238 11.3 17.7 0.00 2.06 2.06 97 1003.5
20260507194041 8 234 11.3 16.1 0.00 2.06 2.06 97 1003.6
20260507193541 8 244 11.3 16.1 0.00 2.06 2.06 98 1003.6
20260507193125 8 239 9.7 16.1 0.00 2.06 2.06 98 1003.5
20260507192542 8 245 8.0 16.1 0.00 2.06 2.06 98 1003.6
20260507192047 8 253 11.3 16.1 0.00 2.06 2.06 98 1003.6
20260507191559 8 237 9.7 14.5 0.00 2.06 2.06 98 1003.7
20260507191046 8 229 11.3 16.1 0.00 2.06 2.06 98 1003.6
20260507190547 8 235 11.3 16.1 0.00 2.06 2.06 99 1003.6
20260507190054 7 223 11.3 16.1 0.00 2.06 2.06 99 1003.6
20260507185544 7 234 9.7 14.5 0.00 2.06 2.06 99 1003.6
20260507185048 8 234 8.0 12.9 0.00 2.06 2.06 99 1003.4
20260507184554 8 219 8.0 14.5 0.00 2.06 2.06 99 1003.4
20260507184043 8 238 8.0 14.5 0.00 2.06 2.06 100 1003.4
20260507183544 8 250 8.0 14.5 0.00 2.06 2.06 100 1003.3
20260507183102 8 236 6.4 12.9 0.00 2.06 2.06 100 1003.3
20260507182545 7 253 8.0 12.9 0.00 2.06 2.06 100 1003.4
20260507182045 8 238 8.0 12.9 0.00 2.06 2.06 100 1003.5
20260507181554 7 226 8.0 12.9 0.00 2.06 2.06 100 1003.5
20260507181044 8 232 4.8 12.9 0.00 2.06 2.06 100 1003.5
20260507180545 8 250 6.4 12.9 0.00 2.06 2.06 100 1003.3
20260507180056 8 248 6.4 12.9 0.00 2.06 2.06 100 1003.4
20260507175544 8 313 4.8 11.3 0.00 2.06 2.06 100 1003.4
20260507175046 8 245 6.4 12.9 0.00 2.06 2.06 100 1003.3
20260507174554 8 265 4.8 14.5 0.00 2.06 2.06 100 1003.2
20260507174046 8 270 8.0 14.5 0.00 2.06 2.06 100 1003.2
20260507173545 8 276 9.7 14.5 0.00 2.06 2.06 100 1003.2
20260507173130 7 300 3.2 14.5 0.00 2.06 2.06 100 1003.2
20260507172543 7 245 4.8 14.5 0.00 2.06 2.06 100 1003.5
20260507172044 8 238 4.8 14.5 0.00 2.06 2.06 100 1003.5
20260507171556 8 298 6.4 14.5 0.00 2.06 2.06 100 1003.4
20260507171045 8 301 6.4 12.9 0.00 2.06 2.06 100 1003.5
20260507170545 8 279 6.4 14.5 0.00 2.06 2.06 100 1003.6
20260507170053 8 258 6.4 16.1 0.00 2.06 2.06 100 1003.5
20260507165544 8 287 6.4 16.1 0.00 2.06 2.06 100 1003.6
20260507165044 8 292 8.0 12.9 0.00 2.06 2.06 100 1003.7
20260507164604 8 311 4.8 14.5 0.00 2.06 2.06 100 1003.6
20260507164045 7 325 4.8 14.5 0.00 2.06 2.06 100 1003.7
20260507163545 7 292 9.7 16.1 0.03 2.06 2.06 100 1003.9
20260507163054 7 274 9.7 16.1 0.03 2.06 2.06 100 1004.0
20260507162544 7 304 8.0 16.1 0.05 2.06 2.06 100 1003.9
20260507162045 7 305 11.3 16.1 0.05 2.06 2.06 100 1004.0
20260507161607 7 280 11.3 16.1 0.05 2.06 2.06 100 1003.9
20260507161045 7 342 6.4 14.5 0.08 2.06 2.06 100 1003.1
20260507160545 7 297 6.4 12.9 0.05 2.06 2.06 100 1003.5
20260507160103 7 296 4.8 12.9 0.08 2.06 2.06 100 1004.1
20260507155544 7 290 1.6 9.7 0.13 2.06 2.06 100 1004.2
20260507155045 7 271 3.2 12.9 0.18 2.06 2.06 100 1004.5
20260507154550 6 263 3.2 16.1 0.18 2.06 2.06 100 1004.5
20260507154042 6 254 8.0 16.1 0.20 2.06 2.06 100 1004.5
20260507153542 7 231 11.3 14.5 0.23 2.03 2.03 100 1004.7
20260507153055 7 231 6.4 12.9 0.25 2.03 2.03 100 1004.5
20260507152548 7 225 9.7 12.9 0.25 2.01 2.01 100 1004.2
20260507152045 7 225 4.8 9.7 0.25 2.01 2.01 100 1004.0
20260507151549 7 240 4.8 8.0 0.25 2.01 2.01 100 1003.6
20260507151042 7 222 1.6 4.8 0.23 1.98 1.98 100 1003.5
20260507150550 7 221 0.0 6.4 0.25 1.98 1.98 100 1003.5
20260507150053 7 221 1.6 8.0 0.20 1.96 1.96 100 1003.7
20260507145542 7 221 4.8 9.7 0.15 1.88 1.88 100 1004.0
20260507145044 7 223 4.8 9.7 0.13 1.88 1.88 100 1004.3
20260507144601 7 203 6.4 9.7 0.10 1.85 1.85 100 1004.5
20260507144042 7 199 4.8 11.3 0.08 1.80 1.80 100 1004.5
20260507143541 7 221 4.8 12.9 0.08 1.78 1.78 100 1004.2
20260507143051 7 221 6.4 12.9 0.10 1.78 1.78 100 1004.2